Вернуться в каталог

SCOUT G-1 DEB

АктивенPO
NORAD 22706·DEBRIS·🇺🇸 United States

Запущен Jun 25, 1993 с Vandenberg Space Force Base

Loading…

Ближайшие Пролёты (ближайшие 24 часа)

TLE

СвежийSource: Space-Track

Эпоха: Sep 14, 2026, 09:40 UTC

1 22706U 93041C   26257.40292432  .00000785  00000-0  20942-3 0  9992
2 22706  89.2748  47.5621 0029191  94.0613 295.6693 14.47319414742828

Отслеживайте SCOUT G-1 DEB в реальном времени с AllMySat

Download on the App Store